1488920401.12,32009,9.06,72966.8,-10.77,-24.35,-24.57,0,*6D
1488920402.37,32010,9.06,72964.8,-10.77,-24.47,-24.71,0,*64
1488920403.61,32011,9.06,72964.5,-10.75,-24.35,-24.57,0,*66
1488920404.85,32012,9.06,72964.3,-10.77,-24.41,-24.61,0,*61
1488920406.15,32013,9.06,72964.8,-10.75,-24.41,-24.67,0,*64
1488920407.42,32014,9.06,72962.3,-10.77,-24.41,-24.71,0,*66
1488920408.69,32015,9.06,72964.8,-10.75,-24.41,-24.57,0,*61
1488920409.93,32016,9.06,72966.5,-10.77,-24.57,-24.71,0,*63
1488920411.17,32017,9.06,72966.8,-10.77,-24.41,-24.61,0,*64
1488920412.41,32018,9.06,72966.0,-10.77,-24.41,-24.61,0,*6B
1488920413.68,32019,9.06,72966.3,-10.77,-24.41,-24.71,0,*6B
1488920414.92,32020,9.06,72962.5,-10.77,-24.41,-24.61,0,*60
1488920416.14,32021,9.06,72966.3,-10.77,-24.31,-24.61,0,*66
1488920417.38,32022,9.06,72966.0,-10.77,-24.21,-24.47,0,*60
1488920418.62,32023,9.06,72966.0,-10.77,-24.21,-24.47,0,*61
1488920419.86,32024,9.06,72966.5,-10.77,-24.25,-24.57,0,*63
1488920421.11,32025,9.06,72966.8,-10.77,-24.31,-24.71,0,*63
1488920422.35,32026,9.06,72964.5,-10.77,-24.21,-24.51,0,*63
1488920423.6,32027,9.06,72964.0,-10.77,-24.47,-24.71,0,*60
1488920424.84,32028,9.06,72964.8,-10.77,-24.41,-24.61,0,*68
1488920426.06,32029,9.06,72966.3,-10.77,-24.31,-24.57,0,*6B
1488920427.3,32030,9.06,72962.5,-10.77,-24.25,-24.61,0,*63
1488920428.55,32031,9.06,72964.0,-10.77,-24.47,-24.71,0,*67
1488920429.82,32032,9.06,72962.8,-10.75,-24.25,-24.57,0,*66
1488920431.06,32033,9.06,72966.3,-10.77,-24.41,-24.61,0,*62
1488920432.28,32034,9.06,72964.5,-10.77,-24.31,-24.57,0,*67
1488920433.5,32035,9.06,72966.5,-10.77,-24.31,-24.61,0,*63
1488920434.76,32036,9.06,72966.3,-10.77,-24.41,-24.71,0,*66
1488920436.01,32037,9.06,72962.3,-10.77,-24.41,-24.61,0,*66
1488920437.28,32038,9.06,72966.8,-10.75,-24.25,-24.57,0,*6C
1488920438.56,32039,9.06,72964.0,-10.79,-24.47,-24.71,0,*61
1488920439.83,32040,9.06,72966.8,-10.79,-24.47,-24.87,0,*66
1488920441.1,32041,9.06,72968.5,-10.77,-24.25,-24.71,0,*64
1488920442.32,32042,9.06,72966.8,-10.77,-24.31,-24.61,0,*63
1488920443.59,32043,9.06,72964.5,-10.75,-24.21,-24.57,0,*64
1488920444.83,32044,9.06,72966.3,-10.77,-24.25,-24.57,0,*65
1488920446.05,32045,9.06,72962.8,-10.77,-24.31,-24.61,0,*64
1488920447.32,32046,9.06,72964.8,-10.77,-24.25,-24.71,0,*63
1488920448.57,32047,9.06,72964.0,-10.75,-24.35,-24.61,0,*60
1488920449.79,32048,9.06,72964.5,-10.77,-24.31,-24.61,0,*69
1488920451.06,32049,9.06,72966.3,-10.79,-24.31,-24.71,0,*67
1488920452.36,32050,9.06,72964.5,-10.79,-24.41,-24.71,0,*68
1488920453.66,32051,9.06,72964.5,-10.79,-24.41,-24.71,0,*69
1488920454.91,32052,9.06,72964.3,-10.79,-24.31,-24.61,0,*6C
1488920456.18,32053,9.06,72964.0,-10.79,-24.31,-24.71,0,*6C
1488920457.46,32054,9.06,72962.5,-10.79,-24.31,-24.71,0,*6B
1488920458.71,32055,9.06,72964.5,-10.79,-24.31,-24.61,0,*6B
1488920459.98,32056,9.06,72964.3,-10.79,-24.41,-24.61,0,*6F
1488920461.23,32057,9.06,72964.5,-10.79,-24.47,-24.77,0,*6F
1488920462.47,32058,9.06,72970.0,-10.79,-24.31,-24.61,0,*66
1488920463.75,32059,9.06,72966.8,-10.79,-24.25,-24.61,0,*62
1488920465.02,32060,9.06,72968.8,-10.79,-24.31,-24.71,0,*6C
1488920466.27,32061,9.06,72966.0,-10.81,-24.47,-24.83,0,*66
1488920467.55,32062,9.06,72964.5,-10.79,-24.25,-24.61,0,*6A
1488920468.82,32063,9.06,72964.8,-10.79,-24.25,-24.57,0,*6E
1488920470.04,32064,9.06,72966.0,-10.81,-24.35,-24.77,0,*6D
1488920471.29,32065,9.06,72964.3,-10.79,-24.31,-24.61,0,*68
1488920472.54,32066,9.06,72962.5,-10.79,-24.31,-24.61,0,*6B
1488920473.81,32067,9.06,72970.3,-10.79,-24.31,-24.71,0,*6B
1488920475.06,32068,9.06,72966.3,-10.81,-24.47,-24.67,0,*65
1488920476.33,32069,9.06,72964.3,-10.79,-24.25,-24.61,0,*61
1488920477.6,32070,9.06,72962.8,-10.79,-24.31,-24.71,0,*6D
1488920478.83,32071,9.06,72966.3,-10.81,-24.35,-24.77,0,*69
1488920480.1,32072,9.06,72966.5,-10.79,-24.31,-24.71,0,*6F
1488920481.37,32073,9.06,72964.0,-10.79,-24.25,-24.57,0,*6F
1488920482.6,32074,9.06,72964.0,-10.81,-24.31,-24.51,0,*6C
1488920483.85,32075,9.06,72964.5,-10.81,-24.25,-24.61,0,*6B
1488920485.12,32076,9.06,72966.3,-10.79,-24.21,-24.57,0,*6E
1488920486.39,32077,9.06,72964.8,-10.81,-24.25,-24.67,0,*6F
1488920487.66,32078,9.06,72968.3,-10.79,-24.25,-24.61,0,*61
1488920488.94,32079,9.06,72966.8,-10.79,-24.31,-24.71,0,*64
1488920490.18,32080,9.06,72966.0,-10.81,-24.35,-24.67,0,*66
1488920491.4,32081,9.06,72970.0,-10.81,-24.31,-24.77,0,*62
1488920492.67,32082,9.06,72964.5,-10.79,-24.25,-24.57,0,*61
1488920493.95,32083,9.06,72964.8,-10.79,-24.25,-24.61,0,*65
1488920495.25,32084,9.06,72964.5,-10.79,-24.25,-24.71,0,*63
1488920496.49,32085,9.06,72966.0,-10.81,-24.35,-24.83,0,*69
1488920497.77,32086,9.06,72964.5,-10.79,-24.25,-24.61,0,*60
1488920499.02,32087,9.06,72966.5,-10.81,-24.25,-24.61,0,*66
1488920500.24,32088,9.06,72966.3,-10.81,-24.35,-24.77,0,*6F
1488920501.51,32089,9.06,72964.3,-10.79,-24.25,-24.47,0,*6B
1488920502.78,32090,9.06,72964.0,-10.79,-24.21,-24.57,0,*66
1488920504.05,32091,9.06,72966.5,-10.79,-24.21,-24.57,0,*67
1488920505.32,32092,9.06,72964.8,-10.79,-24.21,-24.57,0,*64
1488920506.59,32093,9.06,72966.3,-10.79,-24.21,-24.57,0,*65
1488920507.86,32094,9.06,72966.8,-10.79,-24.21,-24.57,0,*62
1488920509.1,32095,9.06,72966.8,-10.81,-24.31,-24.67,0,*66
1488920510.38,32096,9.06,72968.3,-10.79,-24.31,-24.71,0,*65
1488920511.65,32097,9.06,72964.0,-10.79,-24.25,-24.77,0,*67
1488920512.93,32098,9.06,72966.3,-10.79,-24.31,-24.71,0,*6B
1488920514.2,32099,9.06,72966.0,-10.79,-24.11,-24.47,0,*6D
1488920515.47,32100,9.06,72968.0,-10.79,-24.21,-24.61,0,*6B
1488920516.74,32101,9.06,72964.0,-10.79,-24.21,-24.47,0,*6E
1488920518.01,32102,9.06,72964.8,-10.79,-24.11,-24.47,0,*6E
1488920519.24,32103,9.06,72964.5,-10.81,-24.15,-24.51,0,*6B
1488920520.5,32104,9.06,72968.0,-10.81,-24.25,-24.61,0,*6C
1488920521.77,32105,9.06,72968.5,-10.79,-24.21,-24.57,0,*6B
1488920523.03,32106,9.06,72964.3,-10.79,-24.11,-24.47,0,*6A
1488920524.33,32107,9.06,72964.8,-10.79,-24.21,-24.71,0,*6D
1488920525.6,32108,9.06,72966.3,-10.79,-24.21,-24.57,0,*66
1488920526.87,32109,9.06,72964.3,-10.79,-24.11,-24.47,0,*65
1488920528.11,32110,9.06,72966.8,-10.79,-24.05,-24.31,0,*69
1488920529.39,32111,9.06,72964.8,-10.79,-24.25,-24.61,0,*6F
1488920530.69,32112,9.06,72966.0,-10.79,-24.25,-24.71,0,*6D
1488920531.96,32113,9.06,72960.5,-10.79,-24.25,-24.61,0,*6D
1488920533.23,32114,9.06,72964.3,-10.79,-24.25,-24.57,0,*6F
1488920534.5,32115,9.06,72964.8,-10.79,-24.11,-24.47,0,*68
1488920535.8,32116,9.06,72966.3,-10.79,-24.21,-24.71,0,*6D
1488920537.07,32117,9.06,72962.5,-10.79,-24.31,-24.71,0,*6D
1488920538.35,32118,9.06,72964.5,-10.79,-24.25,-24.61,0,*66
1488920539.59,32119,9.06,72964.8,-10.81,-24.15,-24.51,0,*60
1488920540.88,32120,9.06,72962.0,-10.79,-24.21,-24.67,0,*6F
1488920542.1,32121,9.06,72966.5,-10.81,-24.35,-24.93,0,*67
1488920543.37,32122,9.06,72962.5,-10.79,-24.25,-24.61,0,*6F
1488920544.64,32123,9.06,72966.3,-10.79,-24.21,-24.61,0,*6A
1488920545.91,32124,9.06,72966.3,-10.79,-24.21,-24.47,0,*69
1488920547.19,32125,9.06,72968.8,-10.79,-24.21,-24.61,0,*6C
1488920548.45,32126,9.06,72964.3,-10.79,-24.11,-24.47,0,*68
1488920549.72,32127,9.06,72966.0,-10.79,-24.11,-24.47,0,*69
1488920550.99,32128,9.06,72966.8,-10.79,-24.11,-24.57,0,*67
1488920552.25,32129,9.06,72964.3,-10.79,-24.11,-24.57,0,*66
1488920553.49,32130,9.06,72968.0,-10.81,-24.15,-24.61,0,*68
1488920554.76,32131,9.06,72964.5,-10.79,-24.11,-24.47,0,*6E
1488920556.03,32132,9.06,72966.8,-10.79,-24.21,-24.47,0,*6E
1488920557.27,32133,9.06,72964.3,-10.77,-24.11,-24.57,0,*63
1488920558.5,32134,9.06,72966.0,-10.77,-24.21,-24.57,0,*67
1488920559.74,32135,9.06,72966.5,-10.77,-24.11,-24.57,0,*65
1488920560.95,32136,9.06,72966.0,-10.77,-24.05,-24.47,0,*62
1488920562.17,32137,9.06,72966.0,-10.77,-24.05,-24.47,0,*63
1488920563.43,32138,9.06,72966.8,-10.75,-23.89,-24.41,0,*6B
1488920564.7,32139,9.06,72964.8,-10.79,-24.21,-24.61,0,*61
1488920565.97,32140,9.06,72964.3,-10.79,-24.11,-24.61,0,*6C
1488920567.24,32141,9.06,72966.0,-10.79,-24.21,-24.57,0,*6B
1488920568.51,32142,9.06,72964.8,-10.79,-24.11,-24.57,0,*6B
1488920569.77,32143,9.06,72968.0,-10.79,-24.11,-24.57,0,*6A
1488920571.04,32144,9.06,72964.8,-10.79,-23.95,-24.47,0,*67
1488920572.3,32145,9.06,72966.8,-10.79,-24.11,-24.57,0,*6C
1488920573.54,32146,9.06,72966.3,-10.79,-24.05,-24.47,0,*6B
1488920574.82,32147,9.06,72970.3,-10.79,-24.21,-24.57,0,*6D
1488920576.08,32148,9.06,72964.8,-10.79,-24.11,-24.57,0,*61
1488920577.29,32149,9.06,72962.3,-10.77,-24.05,-24.47,0,*6A
1488920578.51,32150,9.06,72964.5,-10.77,-24.05,-24.47,0,*62
1488920579.75,32151,9.06,72966.5,-10.77,-24.21,-24.61,0,*61
1488920580.99,32152,9.06,72968.5,-10.77,-24.21,-24.57,0,*67
1488920582.23,32153,9.06,72964.0,-10.77,-24.21,-24.61,0,*63
1488920583.47,32154,9.06,72964.0,-10.77,-24.21,-24.61,0,*64
1488920584.75,32155,9.06,72964.5,-10.77,-24.25,-24.71,0,*60
1488920585.99,32156,9.06,72970.3,-10.77,-24.25,-24.61,0,*62
1488920587.23,32157,9.06,72964.5,-10.77,-24.25,-24.61,0,*63
1488920588.48,32158,9.06,72966.0,-10.75,-24.05,-24.57,0,*69
1488920589.72,32159,9.06,72964.8,-10.77,-24.21,-24.61,0,*69
1488920590.96,32160,9.06,72964.5,-10.77,-24.25,-24.77,0,*60
1488920592.23,32161,9.06,72966.8,-10.77,-24.25,-24.87,0,*6E
1488920593.5,32162,9.06,72966.5,-10.77,-24.21,-24.71,0,*60
1488920594.77,32163,9.06,72968.5,-10.77,-24.21,-24.71,0,*61
1488920595.99,32164,9.06,72966.5,-10.77,-24.31,-24.61,0,*66
1488920597.24,32165,9.06,72968.0,-10.77,-24.25,-24.61,0,*62
1488920598.48,32166,9.06,72968.8,-10.77,-24.25,-24.57,0,*64
1488920599.72,32167,9.06,72966.3,-10.77,-24.21,-24.57,0,*61
1488920600.99,32168,9.06,72966.0,-10.77,-24.21,-24.71,0,*6A
1488920602.26,32169,9.06,72970.0,-10.79,-24.25,-24.61,0,*60
1488920603.56,32170,9.06,72966.3,-10.79,-24.25,-24.71,0,*69
1488920604.81,32171,9.06,72968.5,-10.81,-24.25,-24.77,0,*69
1488920606.09,32172,9.06,72970.5,-10.79,-24.25,-24.61,0,*6A
1488920607.36,32173,9.06,72964.5,-10.79,-24.21,-24.57,0,*6A
1488920608.66,32174,9.06,72968.0,-10.79,-24.21,-24.71,0,*69
1488920609.93,32175,9.06,72964.8,-10.79,-24.21,-24.57,0,*6C
1488920611.2,32176,9.06,72968.8,-10.79,-24.21,-24.61,0,*6A
1488920612.5,32177,9.06,72968.5,-10.79,-24.21,-24.71,0,*6A
1488920613.77,32178,9.06,72968.3,-10.79,-24.31,-24.87,0,*6D
1488920615.01,32179,9.06,72964.8,-10.77,-24.31,-24.71,0,*6B
1488920616.26,32180,9.06,72966.5,-10.77,-24.25,-24.77,0,*6E
1488920617.5,32181,9.06,72970.3,-10.77,-24.31,-24.87,0,*65
1488920618.78,32182,9.06,72964.0,-10.79,-24.31,-24.87,0,*68
1488920620.0,32183,9.06,72968.0,-10.81,-24.31,-24.93,0,*6B
1488920621.24,32184,9.06,72966.0,-10.81,-24.31,-24.67,0,*67
1488920622.52,32185,9.06,72964.3,-10.79,-24.25,-24.61,0,*62
1488920623.76,32186,9.06,72964.5,-10.81,-24.31,-24.67,0,*65
1488920625.03,32187,9.06,72966.8,-10.79,-24.21,-24.61,0,*64
1488920626.3,32188,9.06,72968.5,-10.81,-24.25,-24.67,0,*6E
1488920627.57,32189,9.06,72966.8,-10.79,-24.21,-24.61,0,*6A
1488920628.85,32190,9.06,72968.0,-10.79,-24.21,-24.77,0,*65
1488920630.12,32191,9.06,72966.8,-10.77,-24.25,-24.71,0,*68
1488920631.37,32192,9.06,72970.3,-10.81,-24.25,-24.77,0,*64
1488920632.64,32193,9.06,72968.5,-10.81,-24.25,-24.67,0,*64
1488920633.91,32194,9.06,72966.3,-10.79,-24.11,-24.61,0,*65
1488920635.18,32195,9.06,72968.0,-10.79,-24.11,-24.61,0,*64
1488920636.44,32196,9.06,72968.3,-10.79,-24.11,-24.57,0,*62
1488920637.71,32197,9.06,72966.0,-10.79,-24.21,-24.61,0,*65
1488920639.01,32198,9.06,72966.5,-10.79,-24.21,-24.71,0,*6B
1488920640.28,32199,9.06,72968.3,-10.81,-24.21,-24.67,0,*6A
1488920641.58,32200,9.06,72970.0,-10.79,-24.21,-24.71,0,*69
1488920642.85,32201,9.06,72968.3,-10.79,-24.21,-24.61,0,*69
1488920644.1,32202,9.06,72968.3,-10.81,-24.25,-24.77,0,*6E
1488920645.4,32203,9.06,72966.8,-10.79,-24.21,-24.71,0,*6A
1488920646.68,32204,9.06,72964.3,-10.79,-24.25,-24.77,0,*6F
1488920647.97,32205,9.06,72964.3,-10.79,-24.25,-24.87,0,*61
1488920649.25,32206,9.06,72966.3,-10.79,-24.25,-24.77,0,*6D
1488920650.5,32207,9.06,72970.0,-10.81,-24.31,-24.83,0,*65
1488920651.77,32208,9.06,72968.0,-10.79,-24.21,-24.77,0,*67
1488920653.04,32209,9.06,72966.0,-10.79,-24.21,-24.77,0,*66
1488920654.31,32210,9.06,72968.3,-10.79,-24.21,-24.61,0,*69
1488920655.56,32211,9.06,72968.8,-10.79,-24.05,-24.61,0,*6E
1488920656.83,32212,9.06,72964.0,-10.81,-24.25,-24.67,0,*6E
1488920658.09,32213,9.06,72970.0,-10.79,-24.11,-24.47,0,*6D
1488920659.36,32214,9.06,72964.3,-10.79,-24.11,-24.57,0,*6B
1488920660.66,32215,9.06,72966.3,-10.79,-24.25,-24.71,0,*69
1488920661.96,32216,9.06,72964.3,-10.79,-24.25,-24.71,0,*6A
1488920663.21,32217,9.06,72970.0,-10.77,-24.31,-24.87,0,*69
1488920664.47,32218,9.06,72968.0,-10.77,-24.25,-24.87,0,*63
1488920665.77,32219,9.06,72966.8,-10.79,-24.21,-24.71,0,*61
1488920667.07,32220,9.06,72964.8,-10.79,-24.25,-24.87,0,*66
1488920668.34,32221,9.06,72966.3,-10.79,-24.11,-24.61,0,*68
1488920669.64,32222,9.06,72966.5,-10.79,-24.21,-24.71,0,*69
1488920670.89,32223,9.06,72962.3,-10.81,-24.05,-24.71,0,*69
1488920672.19,32224,9.06,72968.5,-10.79,-24.21,-24.71,0,*6F
1488920673.49,32225,9.06,72968.0,-10.79,-24.21,-24.71,0,*6E
1488920674.73,32226,9.06,72966.3,-10.81,-24.11,-24.61,0,*68
1488920676.0,32227,9.06,72966.0,-10.79,-24.11,-24.61,0,*6E
1488920677.25,32228,9.06,72964.0,-10.79,-24.31,-24.77,0,*64
1488920678.55,32229,9.06,72968.5,-10.79,-24.25,-24.71,0,*66
1488920679.84,32230,9.06,72964.0,-10.79,-24.21,-24.67,0,*6D
1488920681.11,32231,9.06,72966.3,-10.79,-24.11,-24.61,0,*69
1488920682.35,32232,9.06,72970.0,-10.81,-24.15,-24.77,0,*6E
1488920683.59,32233,9.06,72964.5,-10.81,-24.15,-24.77,0,*6F
1488920684.86,32234,9.06,72968.0,-10.79,-24.11,-24.77,0,*6B
1488920686.15,32235,9.06,72966.5,-10.75,-24.15,-24.71,0,*64
1488920687.42,32236,9.06,72966.3,-10.79,-24.21,-24.77,0,*6A
1488920688.66,32237,9.06,72970.8,-10.77,-24.11,-24.57,0,*64
1488920689.93,32238,9.06,72968.3,-10.79,-24.21,-24.57,0,*66
1488920691.2,32239,9.06,72968.3,-10.79,-24.21,-24.61,0,*62
1488920692.5,32240,9.06,72966.5,-10.79,-24.11,-24.71,0,*6E
1488920693.77,32241,9.06,72966.0,-10.79,-24.21,-24.61,0,*6D
1488920695.03,32242,9.06,72970.0,-10.79,-24.11,-24.57,0,*68
1488920696.33,32243,9.06,72970.8,-10.79,-24.21,-24.71,0,*6E
1488920697.61,32244,9.06,72968.8,-10.79,-24.25,-24.77,0,*6B
1488920698.85,32245,9.06,72968.8,-10.79,-24.31,-24.93,0,*65
1488920700.1,32246,9.06,72968.0,-10.79,-24.31,-24.93,0,*66
1488920701.37,32247,9.06,72968.3,-10.79,-24.25,-24.77,0,*68
1488920702.65,32248,9.06,72964.3,-10.79,-24.31,-24.87,0,*6D
1488920703.92,32249,9.06,72966.8,-10.79,-24.25,-24.77,0,*66
1488920705.19,32250,9.06,72968.0,-10.77,-24.25,-24.87,0,*6F
1488920706.46,32251,9.06,72970.8,-10.77,-24.25,-24.87,0,*6E
1488920707.68,32252,9.06,72966.8,-10.77,-24.31,-24.77,0,*67
1488920708.93,32253,9.06,72968.3,-10.81,-24.25,-24.77,0,*6A
1488920710.2,32254,9.06,72968.5,-10.79,-24.11,-24.61,0,*6A
1488920711.5,32255,9.06,72966.8,-10.79,-24.21,-24.71,0,*69
1488920712.74,32256,9.06,72968.0,-10.81,-24.15,-24.51,0,*68
1488920714.04,32257,9.06,72966.3,-10.79,-24.21,-24.71,0,*6B
1488920715.31,32258,9.06,72970.0,-10.79,-24.25,-24.77,0,*66
1488920716.56,32259,9.06,72966.8,-10.77,-24.25,-24.77,0,*69
1488920717.86,32260,9.06,72968.5,-10.79,-24.25,-24.71,0,*6B
1488920719.12,32261,9.06,72966.3,-10.79,-24.11,-24.61,0,*6C
1488920720.39,32262,9.06,72966.8,-10.79,-24.11,-24.57,0,*6A
1488920721.64,32263,9.06,72970.3,-10.81,-24.21,-24.77,0,*6D
1488920722.94,32264,9.06,72968.8,-10.79,-24.21,-24.71,0,*6B
1488920724.24,32265,9.06,72966.3,-10.79,-24.21,-24.71,0,*6A
1488920725.54,32266,9.06,72966.5,-10.79,-24.21,-24.71,0,*69
1488920726.81,32267,9.06,72964.5,-10.81,-24.21,-24.87,0,*66
1488920728.06,32268,9.06,72970.3,-10.81,-24.31,-24.83,0,*6C
1488920729.36,32269,9.06,72970.5,-10.79,-24.25,-24.71,0,*62
1488920730.63,32270,9.06,72964.5,-10.79,-24.11,-24.47,0,*68
1488920731.88,32271,9.06,72970.5,-10.81,-24.25,-24.77,0,*6A
1488920733.13,32272,9.06,72966.0,-10.81,-24.25,-24.77,0,*69
1488920734.4,32273,9.06,72964.3,-10.79,-24.25,-24.77,0,*6F
1488920735.7,32274,9.06,72970.0,-10.79,-24.25,-24.87,0,*67
1488920736.95,32275,9.06,72964.5,-10.77,-24.25,-24.77,0,*67
1488920738.25,32276,9.06,72964.5,-10.79,-24.25,-24.87,0,*65
1488920739.52,32277,9.06,72968.3,-10.79,-24.25,-24.77,0,*6B
1488920740.77,32278,9.06,72968.5,-10.81,-24.31,-24.83,0,*6D
1488920741.99,32279,9.06,72968.0,-10.81,-24.35,-24.93,0,*69
1488920743.21,32280,9.06,72968.8,-10.81,-24.35,-25.09,0,*6D
1488920744.44,32281,9.06,72966.3,-10.81,-24.51,-25.09,0,*6E
1488920745.67,32282,9.06,72966.8,-10.81,-24.51,-25.09,0,*6D
1488920746.89,32283,9.06,72964.0,-10.81,-24.31,-24.97,0,*6C
1488920748.14,32284,9.06,72970.0,-10.81,-24.31,-24.83,0,*6E
1488920749.37,32285,9.06,72966.8,-10.81,-24.31,-24.77,0,*64
1488920750.58,32286,9.06,72964.8,-10.81,-24.35,-24.93,0,*69
1488920751.86,32287,9.06,72964.5,-10.79,-24.31,-24.87,0,*6E
1488920753.1,32288,9.06,72968.5,-10.81,-24.31,-24.83,0,*62
1488920754.35,32289,9.06,72970.5,-10.81,-24.31,-24.83,0,*63
1488920755.6,32290,9.06,72972.0,-10.81,-24.31,-24.83,0,*6B
1488920756.85,32291,9.06,72966.3,-10.81,-24.25,-24.77,0,*64
1488920758.12,32292,9.06,72966.8,-10.79,-24.21,-24.61,0,*63
1488920759.39,32293,9.06,72970.3,-10.81,-24.21,-24.67,0,*63
1488920760.66,32294,9.06,72966.8,-10.79,-24.21,-24.77,0,*62
1488920761.88,32295,9.06,72966.8,-10.81,-24.35,-24.93,0,*6B
1488920763.16,32296,9.06,72966.8,-10.79,-24.25,-25.09,0,*6C
1488920764.43,32297,9.06,72970.3,-10.81,-24.25,-24.67,0,*63
1488920765.68,32298,9.06,72968.5,-10.81,-24.25,-24.77,0,*6D
1488920766.93,32299,9.06,72968.0,-10.81,-24.25,-24.77,0,*6C
1488920768.18,32300,9.06,72968.8,-10.81,-24.31,-24.83,0,*63
1488920769.41,32301,9.06,72964.5,-10.81,-24.31,-24.77,0,*69
1488920770.68,32302,9.06,72966.3,-10.81,-24.25,-24.83,0,*64
1488920771.93,32303,9.06,72968.3,-10.81,-24.25,-24.93,0,*64
1488920773.2,32304,9.06,72970.0,-10.81,-24.25,-24.83,0,*62
1488920774.47,32305,9.06,72966.0,-10.79,-24.31,-24.87,0,*65
1488920775.75,32306,9.06,72966.5,-10.79,-24.25,-24.93,0,*66
1488920777.02,32307,9.06,72964.0,-10.79,-24.25,-24.77,0,*6D
1488920778.3,32308,9.06,72970.5,-10.81,-24.25,-24.83,0,*6E
1488920779.52,32309,9.06,72970.5,-10.81,-24.31,-24.93,0,*6B
1488920780.77,32310,9.06,72964.8,-10.81,-24.31,-24.83,0,*62
1488920781.99,32311,9.06,72964.5,-10.81,-24.31,-24.77,0,*68
1488920783.21,32312,9.06,72966.5,-10.81,-24.35,-24.97,0,*61
1488920784.46,32313,9.06,72970.3,-10.81,-24.31,-24.83,0,*61
1488920785.68,32314,9.06,72964.0,-10.81,-24.31,-24.77,0,*6D
1488920786.93,32315,9.06,72964.3,-10.81,-24.25,-24.77,0,*69
1488920788.18,32316,9.06,72966.0,-10.81,-24.25,-24.97,0,*64
1488920789.43,32317,9.06,72968.8,-10.81,-24.31,-24.83,0,*65
1488920790.68,32318,9.06,72970.0,-10.81,-24.31,-24.83,0,*6A
1488920791.93,32319,9.06,72968.8,-10.81,-24.31,-24.83,0,*6B
1488920793.15,32320,9.06,72968.8,-10.81,-24.31,-24.93,0,*60
1488920794.4,32321,9.06,72968.0,-10.81,-24.31,-24.83,0,*60
1488920795.61,32322,9.06,72964.8,-10.81,-24.35,-24.93,0,*66
1488920796.84,32323,9.06,72962.8,-10.81,-24.31,-24.93,0,*63
1488920798.06,32324,9.06,72968.0,-10.81,-24.47,-24.97,0,*61
1488920799.28,32325,9.06,72964.8,-10.81,-24.47,-24.97,0,*60
1488920800.5,32326,9.06,72970.5,-10.81,-24.35,-24.93,0,*62
1488920801.75,32327,9.06,72966.0,-10.81,-24.31,-24.83,0,*66
1488920802.97,32328,9.06,72966.5,-10.81,-24.31,-24.93,0,*68
1488920804.22,32329,9.06,72972.0,-10.81,-24.31,-24.83,0,*68
1488920805.44,32330,9.06,72970.3,-10.81,-24.31,-24.77,0,*6B
1488920806.72,32331,9.06,72968.5,-10.79,-24.25,-24.77,0,*68
1488920807.96,32332,9.06,72966.0,-10.83,-24.35,-24.93,0,*65
1488920809.2,32333,9.06,72968.0,-10.83,-24.35,-24.93,0,*64
1488920810.43,32334,9.06,72966.8,-10.81,-24.47,-24.97,0,*60
1488920811.66,32335,9.06,72972.0,-10.81,-24.47,-25.09,0,*67
1488920812.89,32336,9.06,72970.0,-10.81,-24.47,-25.09,0,*64
1488920814.13,32337,9.06,72970.3,-10.83,-24.31,-24.97,0,*60
1488920815.38,32338,9.06,72968.5,-10.81,-24.31,-24.83,0,*68
1488920816.65,32339,9.06,72966.3,-10.83,-24.31,-24.83,0,*6B
1488920817.92,32340,9.06,72966.5,-10.83,-24.31,-24.83,0,*65
1488920819.17,32341,9.06,72968.8,-10.83,-24.35,-24.93,0,*61
1488920820.41,32342,9.06,72968.3,-10.83,-24.35,-24.93,0,*62
1488920821.66,32343,9.06,72970.5,-10.81,-24.31,-24.83,0,*64
1488920822.88,32344,9.06,72968.3,-10.81,-24.35,-24.93,0,*66
1488920824.1,32345,9.06,72970.5,-10.81,-24.31,-24.93,0,*63
1488920825.37,32346,9.06,72970.0,-10.87,-24.35,-24.83,0,*63
1488920826.62,32347,9.06,72968.8,-10.81,-24.31,-24.83,0,*60
1488920827.86,32348,9.06,72968.8,-10.83,-24.35,-24.93,0,*68
1488920829.1,32349,9.06,72970.3,-10.81,-24.35,-24.83,0,*6A
1488920830.4,32350,9.06,72966.8,-10.87,-24.41,-25.03,0,*6E
1488920831.64,32351,9.06,72968.0,-10.83,-24.35,-24.97,0,*64
1488920832.9,32352,9.0,72966.5,-10.83,-24.47,-25.09,0,*64
1488920834.15,32353,9.06,72968.5,-10.83,-24.47,-25.09,0,*65
1488920835.42,32354,9.0,72966.5,-10.83,-24.31,-24.83,0,*60
1488920836.67,32355,9.06,72968.8,-10.83,-24.47,-24.93,0,*61
1488920837.92,32356,9.06,72966.8,-10.83,-24.51,-25.09,0,*67
1488920839.17,32357,9.0,72966.0,-10.83,-24.47,-24.93,0,*63
1488920840.42,32358,9.06,72968.3,-10.83,-24.47,-24.97,0,*68
1488920841.67,32359,9.06,72970.0,-10.83,-24.51,-25.09,0,*68
1488920842.93,32360,9.06,72972.3,-10.87,-24.67,-25.19,0,*62
1488920844.2,32361,9.06,72970.3,-10.83,-24.67,-25.13,0,*6D
1488920845.45,32362,9.06,72968.3,-10.83,-24.51,-25.13,0,*6B
1488920846.71,32363,9.06,72968.8,-10.83,-24.47,-25.09,0,*66
1488920847.98,32364,9.06,72968.8,-10.87,-24.51,-25.03,0,*68
1488920849.22,32365,9.0,72966.5,-10.83,-24.35,-24.93,0,*67
1488920850.52,32366,9.0,72966.8,-10.87,-24.41,-24.87,0,*66
1488920851.77,32367,9.06,72970.5,-10.87,-24.51,-25.13,0,*6A
1488920853.02,32368,9.06,72968.0,-10.87,-24.51,-25.13,0,*65
1488920854.27,32369,9.06,72968.0,-10.87,-24.57,-25.13,0,*62
1488920855.53,32370,9.06,72970.3,-10.87,-24.57,-25.29,0,*63
1488920856.8,32371,9.0,72968.3,-10.87,-24.57,-25.03,0,*6A
1488920858.05,32372,9.0,72968.3,-10.87,-24.51,-25.13,0,*6E
1488920859.29,32373,9.0,72964.5,-10.87,-24.57,-25.19,0,*63
1488920860.54,32374,9.0,72968.3,-10.87,-24.57,-25.19,0,*64
1488920861.83,32375,9.06,72970.8,-10.87,-24.67,-25.29,0,*65
1488920863.1,32376,9.06,72968.0,-10.87,-24.51,-25.03,0,*6B
1488920864.35,32377,9.0,72968.3,-10.89,-24.41,-24.97,0,*69
1488920865.57,32378,9.06,72974.3,-10.89,-24.51,-25.13,0,*6A
1488920866.81,32379,9.06,72968.8,-10.89,-24.57,-25.03,0,*6C
1488920868.03,32380,9.06,72974.5,-10.89,-24.57,-25.13,0,*6B
1488920869.25,32381,9.06,72968.3,-10.89,-24.35,-24.97,0,*63
1488920870.49,32382,9.06,72968.5,-10.89,-24.35,-24.87,0,*61
1488920871.73,32383,9.06,72968.8,-10.89,-24.35,-24.83,0,*64
1488920872.97,32384,9.06,72970.0,-10.89,-24.35,-24.83,0,*63
1488920874.22,32385,9.06,72970.5,-10.89,-24.51,-25.03,0,*69
1488920875.46,32386,9.0,72970.0,-10.89,-24.41,-24.97,0,*67
1488920876.74,32387,9.06,72972.0,-10.89,-24.41,-25.03,0,*6A
1488920877.95,32388,9.06,72970.0,-10.89,-24.35,-24.97,0,*6A
1488920879.22,32389,9.06,72968.5,-10.87,-24.35,-24.83,0,*60
1488920880.5,32390,9.06,72972.8,-10.83,-24.25,-24.77,0,*66
1488920881.77,32391,9.06,72968.3,-10.87,-24.41,-24.97,0,*6F
1488920883.02,32392,9.06,72970.5,-10.87,-24.51,-25.13,0,*60
1488920884.29,32393,9.0,72968.8,-10.89,-24.41,-24.87,0,*62
1488920885.53,32394,9.0,72968.8,-10.87,-24.35,-24.97,0,*69
1488920886.75,32395,9.06,72970.5,-10.89,-24.57,-25.13,0,*6F
1488920888.0,32396,9.06,72972.5,-10.89,-24.51,-25.03,0,*6B
1488920889.27,32397,9.06,72972.3,-10.91,-24.41,-24.93,0,*6A
1488920890.49,32398,9.0,72968.3,-10.89,-24.31,-24.97,0,*6F
1488920891.73,32399,9.06,72974.3,-10.91,-24.61,-25.19,0,*65
1488920892.98,32400,9.06,72970.8,-10.89,-24.51,-25.03,0,*63
1488920894.22,32401,9.06,72972.3,-10.89,-24.57,-25.03,0,*64
1488920895.49,32402,9.0,72970.8,-10.91,-24.71,-25.19,0,*61
1488920896.74,32403,9.0,72968.0,-10.89,-24.51,-25.03,0,*60
1488920897.96,32404,9.06,72972.5,-10.89,-24.51,-25.19,0,*6C
1488920899.21,32405,9.0,72970.5,-10.91,-24.61,-25.23,0,*6E
1488920900.48,32406,9.06,72970.5,-10.89,-24.71,-25.29,0,*6F
1488920901.73,32407,9.0,72968.8,-10.91,-24.47,-24.93,0,*62
1488920903.0,32408,9.06,72968.8,-10.91,-24.47,-25.03,0,*65
1488920904.25,32409,9.06,72972.5,-10.89,-24.51,-25.03,0,*6A